Maple Lake, MN

10:49 AM CDT on July 23, 2016 (GMT -0500)
Maple Lake Municipal

Weather History for KMGG - May, 2014

Change the Weather History Date:

Thursday, May 1, 2014

  Actual Average (KSTC) Record (KSTC)
Temperature  
Mean Temperature 43 °F 52 °F  
Max Temperature 50 °F 64 °F 94 °F (1959)
Min Temperature 37 °F 39 °F 22 °F (1966)
Degree Days  
Heating Degree Days 22 14  
Month to date heating degree days 14  
Since 1 July heating degree days 8181  
Cooling Degree Days 0 0  
Month to date cooling degree days 0  
Year to date cooling degree days 2  
Moisture  
Dew Point 39 °F    
Average Humidity 86    
Maximum Humidity 95    
Minimum Humidity 72    
Precipitation  
Precipitation 0.05 in 0.10 in 1.80 in (1894)
Month to date precipitation 0.10  
Year to date precipitation 5.46  
Snow  
Snow 0.00 in 0.00 in 2.80 in (1935)
Month to date snowfall 0.0  
Since 1 July snowfall 45.7  
Snow Depth -    
Sea Level Pressure  
Sea Level Pressure 29.80 in    
Wind  
Wind Speed 12 mph (NW)    
Max Wind Speed 17 mph    
Max Gust Speed 23 mph    
Visibility 9 miles    
Events Rain    
T = Trace of Precipitation, MM = Missing Value Source: NWS Daily Summary

Daily Weather History Graph

Daily Weather History Graph

Search for Another Location

Airport or City:

Trip Planner

Search our weather history database for the weather conditions in past years. The results will help you decide how hot, cold, wet, or windy it might be!

Date:

Astronomy

May. 01, 2014 Rise Set
Actual Time 6:04 AM CDT 8:22 PM CDT
Civil Twilight 5:32 AM CDT 8:54 PM CDT
Nautical Twilight 4:51 AM CDT 9:35 PM CDT
Astronomical Twilight 4:06 AM CDT 10:21 PM CDT
Moon 7:50 AM CDT (5/1) 10:58 PM CDT (5/1)
Length of Visible Light 15h 22m
Length of Day
14h 17m
Waxing Crescent, 7% of the Moon is Illuminated
May 1
Waxing Crescent
May 6
First Quarter
May 14
Full
May 21
Last Quarter
May 28
New

Hourly Weather History & Observations

Time (CDT) Temp. Windchill Dew Point Humidity Pressure Visibility Wind Dir Wind Speed Gust Speed Precip Events Conditions
12:17 AM 40.3 °F 33.0 °F 38.3 °F 93% 29.78 in 10.0 mi NNW 12.7 mph 16.1 mph N/A   Overcast
12:37 AM 40.3 °F 33.9 °F 38.3 °F 93% 29.77 in 10.0 mi NNW 10.4 mph 17.3 mph N/A   Overcast
12:57 AM 40.3 °F 33.4 °F 38.3 °F 93% 29.77 in 10.0 mi NNW 11.5 mph 17.3 mph N/A   Light Drizzle
1:18 AM 40.1 °F 33.2 °F 37.9 °F 92% 29.77 in 10.0 mi NNW 11.5 mph - N/A   Light Drizzle
1:37 AM 40.1 °F 34.1 °F 38.3 °F 93% 29.77 in 10.0 mi NNW 9.2 mph - N/A Rain Light Rain
1:57 AM 39.6 °F 31.7 °F 37.8 °F 93% 29.76 in 10.0 mi NNW 13.8 mph 19.6 mph N/A   Drizzle
2:18 AM 39.4 °F 31.8 °F 37.4 °F 93% 29.76 in 10.0 mi NNW 12.7 mph 17.3 mph 0.01 in Rain Light Rain
2:38 AM 39.2 °F 30.8 °F 37.6 °F 94% 29.75 in 10.0 mi NNW 15.0 mph - 0.01 in Rain Light Rain
2:57 AM 38.8 °F 31.6 °F 37.4 °F 95% 29.75 in 10.0 mi NNW 11.5 mph - 0.02 in   Drizzle
3:17 AM 38.7 °F 31.4 °F 37.4 °F 95% 29.75 in 10.0 mi NNW 11.5 mph - N/A   Drizzle
3:38 AM 38.3 °F 30.1 °F 36.7 °F 94% 29.75 in 7.0 mi NNW 13.8 mph 19.6 mph N/A Rain Rain
3:58 AM 38.3 °F 30.5 °F 36.9 °F 95% 29.75 in 10.0 mi NNW 12.7 mph 18.4 mph N/A   Light Drizzle
4:17 AM 38.3 °F 30.9 °F 36.9 °F 95% 29.75 in 10.0 mi NNW 11.5 mph 17.3 mph N/A   Drizzle
4:37 AM 38.3 °F 30.9 °F 37.0 °F 95% 29.75 in 10.0 mi NNW 11.5 mph - N/A   Drizzle
4:58 AM 38.3 °F 30.1 °F 36.7 °F 94% 29.75 in 7.0 mi NNW 13.8 mph - 0.01 in Rain Rain
5:17 AM 37.9 °F 29.6 °F 36.7 °F 95% 29.75 in 10.0 mi NNW 13.8 mph 17.3 mph N/A Rain Rain
5:37 AM 37.8 °F 30.7 °F 36.5 °F 95% 29.75 in 7.0 mi NNW 10.4 mph 16.1 mph N/A Rain Rain
5:57 AM 37.8 °F 29.8 °F 36.5 °F 95% 29.75 in 10.0 mi NNW 12.7 mph - 0.01 in   Light Drizzle
6:17 AM 37.8 °F 30.7 °F 36.5 °F 95% 29.75 in 10.0 mi NNW 10.4 mph - N/A   Drizzle
6:38 AM 37.8 °F 29.8 °F 36.5 °F 95% 29.76 in 5.0 mi NNW 12.7 mph - N/A Rain Light Rain
6:58 AM 37.9 °F 30.5 °F 36.7 °F 95% 29.76 in 7.0 mi NNW 11.5 mph 18.4 mph N/A   Drizzle
7:17 AM 38.3 °F 30.1 °F 36.9 °F 95% 29.76 in 10.0 mi NNW 13.8 mph - N/A   Light Drizzle
7:38 AM 38.5 °F 30.3 °F 37.0 °F 95% 29.77 in 5.0 mi NNW 13.8 mph 17.3 mph N/A   Light Drizzle
7:58 AM 38.7 °F 31.4 °F 37.4 °F 95% 29.77 in 5.0 mi NNW 11.5 mph - N/A   Light Drizzle
8:17 AM 39.2 °F 31.6 °F 37.4 °F 93% 29.77 in 7.0 mi NNW 12.7 mph 18.4 mph N/A   Light Drizzle
8:38 AM 39.4 °F 31.1 °F 37.6 °F 93% 29.78 in 7.0 mi NNW 15.0 mph - N/A   Light Drizzle
8:57 AM 39.4 °F 31.8 °F 37.6 °F 93% 29.77 in 5.0 mi NNW 12.7 mph 19.6 mph N/A   Light Drizzle
9:17 AM 39.6 °F 32.1 °F 37.8 °F 93% 29.78 in 5.0 mi NNW 12.7 mph 19.6 mph N/A Rain Light Rain
9:57 AM 40.1 °F 33.2 °F 38.3 °F 93% 29.78 in 7.0 mi NNW 11.5 mph 17.3 mph 0.01 in   Light Drizzle
10:17 AM 40.8 °F 32.3 °F 38.8 °F 93% 29.79 in 10.0 mi NNW 17.3 mph 21.9 mph N/A   Overcast
10:37 AM 41.4 °F 34.3 °F 39.2 °F 92% 29.79 in 10.0 mi NNW 12.7 mph - N/A   Overcast
10:58 AM 41.5 °F 33.8 °F 39.4 °F 92% 29.80 in 7.0 mi NNW 15.0 mph 20.7 mph N/A   Light Drizzle
11:17 AM 41.9 °F 35.0 °F 39.6 °F 91% 29.80 in 10.0 mi NNW 12.7 mph 19.6 mph N/A Rain Light Rain
11:37 AM 42.1 °F 34.9 °F 39.6 °F 91% 29.80 in 10.0 mi NNW 13.8 mph - N/A   Light Drizzle
11:57 AM 42.3 °F 35.9 °F 39.6 °F 90% 29.81 in 10.0 mi NW 11.5 mph - N/A   Overcast
12:18 PM 43.0 °F 36.0 °F 40.1 °F 90% 29.81 in 10.0 mi NNW 13.8 mph 19.6 mph N/A   Overcast
12:37 PM 43.3 °F 36.8 °F 39.9 °F 88% 29.81 in 10.0 mi NNW 12.7 mph 19.6 mph N/A   Overcast
1:17 PM 44.6 °F 37.8 °F 40.3 °F 85% 29.82 in 10.0 mi NNW 15.0 mph 20.7 mph N/A   Overcast
1:38 PM 45.0 °F 37.9 °F 40.1 °F 83% 29.82 in 10.0 mi NNW 16.1 mph 23.0 mph N/A   Overcast
1:57 PM 45.7 °F 38.8 °F 40.5 °F 82% 29.83 in 10.0 mi NNW 16.1 mph 20.7 mph N/A   Overcast
2:17 PM 46.9 °F - 40.6 °F 79% 29.83 in 10.0 mi WNW 13.8 mph 20.7 mph N/A   Overcast
2:38 PM 46.4 °F 40.7 °F 40.3 °F 79% 29.83 in 10.0 mi NNW 12.7 mph 20.7 mph N/A   Overcast
2:58 PM 47.8 °F - 41.0 °F 77% 29.83 in 10.0 mi NW 13.8 mph - N/A   Overcast
3:17 PM 48.6 °F - 41.5 °F 77% 29.83 in 10.0 mi NNW 11.5 mph 16.1 mph N/A   Overcast
3:37 PM 48.6 °F - 41.2 °F 76% 29.83 in 10.0 mi NW 15.0 mph - N/A   Overcast
3:58 PM 48.7 °F - 41.0 °F 75% 29.83 in 10.0 mi NW 11.5 mph 17.3 mph N/A   Overcast
4:17 PM 48.9 °F - 40.6 °F 73% 29.83 in 10.0 mi NW 15.0 mph 18.4 mph N/A   Overcast
4:37 PM 49.5 °F - 40.6 °F 72% 29.83 in 10.0 mi NW 11.5 mph - N/A   Overcast
4:58 PM 48.6 °F - 40.3 °F 73% 29.83 in 10.0 mi NW 11.5 mph - N/A   Overcast
5:17 PM 48.6 °F - 40.3 °F 73% 29.83 in 10.0 mi NW 9.2 mph 16.1 mph N/A   Overcast
5:37 PM 48.7 °F - 40.3 °F 73% 29.83 in 10.0 mi NNW 9.2 mph - N/A   Overcast
5:58 PM 48.6 °F - 40.3 °F 73% 29.84 in 10.0 mi NW 8.1 mph - N/A   Overcast
6:17 PM 49.1 °F - 41.2 °F 74% 29.84 in 10.0 mi WNW 9.2 mph - N/A   Overcast
6:38 PM 48.6 °F - 40.5 °F 74% 29.84 in 10.0 mi WNW 11.5 mph - N/A   Overcast
6:57 PM 48.6 °F - 40.3 °F 73% 29.84 in 10.0 mi NW 9.2 mph 16.1 mph N/A   Overcast
7:17 PM 48.4 °F - 40.1 °F 73% 29.84 in 10.0 mi NW 9.2 mph 17.3 mph N/A   Overcast
7:38 PM 48.4 °F - 39.7 °F 72% 29.84 in 10.0 mi NW 9.2 mph - N/A   Overcast
7:57 PM 48.2 °F - 39.9 °F 73% 29.84 in 10.0 mi NW 5.8 mph - N/A   Overcast
8:17 PM 47.7 °F - 40.3 °F 76% 29.84 in 10.0 mi NW 8.1 mph - N/A   Overcast
8:38 PM 47.5 °F - 39.9 °F 75% 29.84 in 10.0 mi NW 5.8 mph - N/A   Overcast
8:57 PM 47.3 °F - 39.6 °F 74% 29.85 in 10.0 mi NW 6.9 mph - N/A   Overcast
9:17 PM 47.3 °F - 39.9 °F 76% 29.85 in 10.0 mi WNW 4.6 mph - N/A   Overcast
9:37 PM 46.9 °F - 39.9 °F 77% 29.85 in 10.0 mi NW 6.9 mph - N/A   Overcast
9:58 PM 46.8 °F - 39.4 °F 75% 29.85 in 10.0 mi NW 4.6 mph - N/A   Overcast
10:17 PM 45.7 °F 42.7 °F 39.0 °F 78% 29.85 in 10.0 mi NW 5.8 mph - N/A   Mostly Cloudy
10:38 PM 44.1 °F 41.5 °F 38.3 °F 80% 29.85 in 10.0 mi WNW 4.6 mph - N/A   Scattered Clouds
10:57 PM 43.0 °F - 37.9 °F 82% 29.85 in 10.0 mi Calm Calm - N/A   Clear
11:18 PM 41.4 °F 39.4 °F 37.4 °F 86% 29.85 in 10.0 mi West 3.5 mph - N/A   Mostly Cloudy
11:37 PM 42.8 °F - 38.5 °F 85% 29.84 in 10.0 mi Calm Calm - N/A   Overcast
11:57 PM 44.1 °F - 38.7 °F 81% 29.84 in 10.0 mi Calm Calm - N/A   Overcast